Погода в Билине

Россия / Смоленская область     55°13′22″N   33°28′40″E
темп.,
°C
ветер,
м/с
пор.,
м/с
влажн.,
%
обл.,
%
осадки,
мм/ч
давл.,
гПа
погр.,
м
11 мая, вт
вт1100:00+7в22732 0.0 102716
03:00+5всв227820 0.0 102816
06:00+5всв247972 0.0 102881
09:00+12всв3657100 0.0 1028492
12:00+16всв46438 0.0 1026897
15:00+18всв464529 0.0 10251000
18:00+18всв475828 0.0 1024730
21:00+12в37825 0.0 1024102
12 мая, ср
ср1200:00+11в310920 0.0 1025179
03:00+10юв359712 0.0 102595
06:00+9юв27942 0.0 1026209
09:00+13юв34670 0.0 1026731
12:00+16вюв35495 0.0 10241506
15:00+13юв3767100 0.0 1022267
18:00+10с4891100 1.0 1019233
21:00+10ююз3797100 3.4 1017293
13 мая, чт
чт1300:00+8юв499744 0.0 1018353
03:00+6в39978 0.0 1018233
06:00+8в51394100 0.1 1016480
09:00+10вюв5988100 0.2 1017891
12:00+13юв6971100 0.2 10151365
15:00+16ююв6956100 0.8 10141885
18:00+15ююз366139 0.1 10131275
21:00+9ю2282100 0.1 101425
14 мая, пт
пт1400:00+7ююв33866 0.0 101542
03:00+7юв369099 0.0 101596
06:00+8вюв3987100 0.0 1015203
09:00+14юв5969100 0.0 1014513
12:00+18юв5863100 0.0 1013951
15:00+19юв69715 1.0 10111103
18:00+19ююв497891 2.0 1009983
21:00+15юв3592100 3.9 100868
15 мая, сб
сб1500:00+13юв389744 0.5 1007153
03:00+13юв3897100 0.6 1007166
06:00+12юв389938 0.7 1006239
09:00+17ю578662 0.8 1006680
12:00+17ю5880100 1.8 10061035
15:00+18юз7107050 3.0 10061322
18:00+17юз610690 0.2 10071318
21:00+12ююз398923 0.2 1008198